• In Latvia
  • List of Countries
  • For 7 days
  • Water Temperature
  • Satellite Maps
  • Weather Map
  • Weather Widgets
  • user-avatar
    Login

    Hourly Weather Sydney

    Today, 24 July, Monday

    Time Temperature Precipitation Wind Pressure Humidity
    00:00 +12°C° 0 mm 5 mps 761 mmHg 47%
    01:00 +12°C° 0 mm 5 mps 761 mmHg 49%
    02:00 +11°C° 0 mm 4 mps 762 mmHg 53%
    03:00 +11°C° 0 mm 4 mps 762 mmHg 57%
    04:00 +10°C° 0 mm 4 mps 762 mmHg 62%
    05:00 +10°C° 0 mm 4 mps 762 mmHg 65%
    06:00 +8°C° 0 mm 4 mps 763 mmHg 68%
    07:00 +8°C° 0 mm 4 mps 763 mmHg 72%
    08:00 +11°C° 0 mm 4 mps 764 mmHg 65%
    09:00 +14°C° 0 mm 5 mps 764 mmHg 58%
    10:00 +17°C° 0 mm 5 mps 764 mmHg 49%
    11:00 +19°C° 0 mm 4 mps 764 mmHg 43%
    12:00 +20°C° 0 mm 4 mps 763 mmHg 37%
    13:00 +21°C° 0 mm 4 mps 763 mmHg 31%
    14:00 +21°C° 0 mm 4 mps 763 mmHg 32%
    15:00 +20°C° 0 mm 4 mps 763 mmHg 33%
    16:00 +20°C° 0 mm 3 mps 763 mmHg 34%
    17:00 +18°C° 0 mm 4 mps 763 mmHg 40%
    18:00 +14°C° 0 mm 4 mps 764 mmHg 47%
    19:00 +12°C° 0 mm 4 mps 764 mmHg 53%
    20:00 +12°C° 0 mm 4 mps 765 mmHg 58%
    21:00 +11°C° 0 mm 4 mps 765 mmHg 62%
    22:00 +9°C° 0 mm 5 mps 765 mmHg 67%
    23:00 +9°C° 0 mm 5 mps 765 mmHg 70%

    Tomorrow, 25 July, Tuesday

    Time Temperature Precipitation Wind Pressure Humidity
    00:00 +8°C° 0 mm 5 mps 765 mmHg 73%
    01:00 +8°C° 0 mm 5 mps 765 mmHg 76%
    02:00 +7°C° 0 mm 5 mps 765 mmHg 78%
    03:00 +7°C° 0 mm 4 mps 765 mmHg 80%
    04:00 +7°C° 0 mm 4 mps 765 mmHg 82%
    05:00 +7°C° 0 mm 4 mps 765 mmHg 82%
    06:00 +6°C° 0 mm 4 mps 766 mmHg 82%
    07:00 +6°C° 0 mm 4 mps 766 mmHg 82%
    08:00 +10°C° 0 mm 4 mps 766 mmHg 71%
    09:00 +12°C° 0 mm 4 mps 766 mmHg 59%
    10:00 +15°C° 0 mm 4 mps 766 mmHg 48%
    11:00 +18°C° 0 mm 3 mps 765 mmHg 42%
    12:00 +20°C° 0 mm 3 mps 765 mmHg 37%
    13:00 +21°C° 0 mm 3 mps 764 mmHg 31%
    14:00 +21°C° 0 mm 3 mps 764 mmHg 33%
    15:00 +21°C° 0 mm 2 mps 763 mmHg 35%
    16:00 +21°C° 0 mm 2 mps 763 mmHg 37%
    17:00 +19°C° 0 mm 2 mps 763 mmHg 43%
    18:00 +17°C° 0 mm 3 mps 763 mmHg 48%
    19:00 +14°C° 0 mm 3 mps 763 mmHg 54%
    20:00 +13°C° 0 mm 4 mps 763 mmHg 55%
    21:00 +13°C° 0 mm 4 mps 763 mmHg 56%
    22:00 +13°C° 0 mm 5 mps 763 mmHg 57%
    23:00 +13°C° 0 mm 5 mps 763 mmHg 56%

    Day after tomorrow, 26 July, Wednesday

    Time Temperature Precipitation Wind Pressure Humidity
    00:00 +13°C° 0 mm 6 mps 762 mmHg 55%
    01:00 +12°C° 0 mm 7 mps 762 mmHg 54%
    02:00 +13°C° 0 mm 6 mps 762 mmHg 54%
    03:00 +13°C° 0 mm 6 mps 761 mmHg 54%
    04:00 +12°C° 0 mm 5 mps 761 mmHg 55%
    05:00 +12°C° 0 mm 5 mps 761 mmHg 56%
    06:00 +12°C° 0 mm 5 mps 761 mmHg 56%
    07:00 +12°C° 0 mm 5 mps 762 mmHg 57%
    08:00 +15°C° 0 mm 5 mps 762 mmHg 52%
    09:00 +17°C° 0 mm 5 mps 762 mmHg 46%
    10:00 +20°C° 0 mm 6 mps 762 mmHg 41%
    11:00 +21°C° 0 mm 6 mps 762 mmHg 37%
    12:00 +21°C° 0 mm 6 mps 761 mmHg 33%
    13:00 +22°C° 0 mm 7 mps 760 mmHg 30%
    14:00 +21°C° 0 mm 7 mps 760 mmHg 32%
    15:00 +21°C° 0 mm 7 mps 761 mmHg 35%
    16:00 +20°C° 0 mm 7 mps 761 mmHg 37%
    17:00 +17°C° 0 mm 7 mps 761 mmHg 42%
    18:00 +15°C° 0 mm 6 mps 762 mmHg 48%
    19:00 +13°C° 0 mm 6 mps 763 mmHg 53%
    20:00 +13°C° 0 mm 6 mps 764 mmHg 57%
    21:00 +11°C° 0 mm 6 mps 764 mmHg 60%
    22:00 +10°C° 0 mm 6 mps 765 mmHg 64%
    23:00 +9°C° 0 mm 5 mps 765 mmHg 67%

    27 July, Thursday

    Time Temperature Precipitation Wind Pressure Humidity
    00:00 +9°C° 0 mm 5 mps 765 mmHg 70%
    01:00 +8°C° 0 mm 5 mps 765 mmHg 73%
    02:00 +8°C° 0 mm 5 mps 765 mmHg 75%
    03:00 +7°C° 0 mm 5 mps 766 mmHg 78%
    04:00 +7°C° 0 mm 4 mps 766 mmHg 80%
    05:00 +7°C° 0 mm 4 mps 766 mmHg 82%
    06:00 +6°C° 0 mm 4 mps 767 mmHg 84%
    07:00 +6°C° 0 mm 4 mps 767 mmHg 86%
    08:00 +8°C° 0 mm 4 mps 767 mmHg 75%
    09:00 +11°C° 0 mm 4 mps 768 mmHg 64%
    10:00 +14°C° 0 mm 3 mps 768 mmHg 52%
    11:00 +16°C° 0 mm 3 mps 767 mmHg 47%
    12:00 +18°C° 0 mm 2 mps 767 mmHg 42%
    13:00 +19°C° 0 mm 2 mps 766 mmHg 36%
    14:00 +19°C° 0 mm 2 mps 766 mmHg 38%
    15:00 +18°C° 0 mm 2 mps 766 mmHg 40%
    16:00 +17°C° 0 mm 2 mps 766 mmHg 41%
    17:00 +15°C° 0 mm 2 mps 766 mmHg 48%
    18:00 +14°C° 0 mm 2 mps 766 mmHg 56%
    19:00 +12°C° 0 mm 2 mps 767 mmHg 63%
    20:00 +10°C° 0 mm 2 mps 767 mmHg 67%
    21:00 +10°C° 0 mm 2 mps 767 mmHg 71%
    22:00 +9°C° 0 mm 2 mps 768 mmHg 75%
    23:00 +9°C° 0 mm 3 mps 767 mmHg 74%

    28 July, Friday

    Time Temperature Precipitation Wind Pressure Humidity
    00:00 +8°C° 0 mm 4 mps 767 mmHg 74%
    01:00 +7°C° 0 mm 5 mps 766 mmHg 73%
    02:00 +8°C° 0 mm 5 mps 765 mmHg 69%
    03:00 +8°C° 0 mm 4 mps 765 mmHg 64%
    04:00 +8°C° 0 mm 4 mps 764 mmHg 60%
    05:00 +8°C° 0 mm 4 mps 764 mmHg 59%
    06:00 +8°C° 0 mm 5 mps 764 mmHg 58%
    07:00 +8°C° 0 mm 5 mps 764 mmHg 57%
    08:00 +12°C° 0 mm 5 mps 764 mmHg 52%
    09:00 +14°C° 0 mm 5 mps 764 mmHg 46%
    10:00 +17°C° 0 mm 5 mps 764 mmHg 40%
    11:00 +20°C° 0 mm 5 mps 763 mmHg 37%
    12:00 +22°C° 0 mm 5 mps 762 mmHg 33%
    13:00 +25°C° 0 mm 5 mps 762 mmHg 30%
    14:00 +23°C° 0 mm 5 mps 762 mmHg 30%
    15:00 +23°C° 0 mm 4 mps 762 mmHg 31%
    16:00 +24°C° 0 mm 3 mps 762 mmHg 32%
    17:00 +20°C° 0 mm 3 mps 762 mmHg 38%
    18:00 +18°C° 0 mm 3 mps 763 mmHg 44%
    19:00 +16°C° 0 mm 3 mps 763 mmHg 50%
    20:00 +16°C° 0 mm 3 mps 764 mmHg 52%
    21:00 +14°C° 0 mm 3 mps 764 mmHg 55%
    22:00 +13°C° 0 mm 3 mps 764 mmHg 57%
    23:00 +13°C° 0 mm 3 mps 764 mmHg 60%

    29 July, Saturday

    Time Temperature Precipitation Wind Pressure Humidity
    00:00 +13°C° 0 mm 2 mps 764 mmHg 64%
    01:00 +13°C° 0 mm 2 mps 764 mmHg 67%
    02:00 +12°C° 0 mm 2 mps 764 mmHg 68%
    03:00 +12°C° 0 mm 2 mps 764 mmHg 70%
    04:00 +12°C° 0 mm 2 mps 763 mmHg 72%
    05:00 +11°C° 0 mm 3 mps 764 mmHg 71%
    06:00 +11°C° 0 mm 3 mps 764 mmHg 71%
    07:00 +11°C° 0 mm 3 mps 764 mmHg 70%
    08:00 +14°C° 0 mm 3 mps 764 mmHg 58%
    09:00 +19°C° 0 mm 4 mps 763 mmHg 45%
    10:00 +22°C° 0 mm 4 mps 763 mmHg 33%
    11:00 +25°C° 0 mm 4 mps 762 mmHg 28%
    12:00 +27°C° 0 mm 4 mps 762 mmHg 24%
    13:00 +28°C° 0 mm 5 mps 761 mmHg 20%
    14:00 +28°C° 0 mm 4 mps 761 mmHg 22%
    15:00 +27°C° 0 mm 4 mps 760 mmHg 24%
    16:00 +26°C° 0 mm 4 mps 760 mmHg 26%
    17:00 +23°C° 0 mm 4 mps 760 mmHg 29%
    18:00 +21°C° 0 mm 4 mps 760 mmHg 33%
    19:00 +19°C° 0 mm 4 mps 761 mmHg 36%
    20:00 +19°C° 0 mm 5 mps 761 mmHg 37%
    21:00 +19°C° 0 mm 5 mps 761 mmHg 38%
    22:00 +19°C° 0 mm 6 mps 761 mmHg 38%
    23:00 +19°C° 0 mm 6 mps 760 mmHg 38%
    Show more